Weather History for Resolute, NU

Change the Weather History Date:

Monday, October 8, 2012

  Actual Average Record
Temperature  
Mean Temperature 16 °F -  
Max Temperature 21 °F 14 °F 30 °F (2007)
Min Temperature 11 °F 6 °F -9 °F (1996)
Degree Days  
Heating Degree Days 49    
Moisture  
Dew Point 14 °F    
Average Humidity 79    
Maximum Humidity 86    
Minimum Humidity 65    
Precipitation  
Precipitation 0.08 in - - ()
Sea Level Pressure  
Sea Level Pressure 29.89 in    
Wind  
Wind Speed 8 mph ()    
Max Wind Speed 18 mph    
Max Gust Speed -    
Visibility 6.8 miles    
Events Snow    
Averages and records for this station are not official NWS values.
T = Trace of Precipitation, MM = Missing Value Source: Averaged Metar Reports

Daily Weather History Graph

Daily Weather History Graph

Search for Another Location

Airport:

Trip Planner

Search our weather history database for the weather conditions in past years. The results will help you decide how hot, cold, wet, or windy it might be!

Date:

Astronomy

Oct. 08, 2012 Rise Set
Actual Time 8:26 AM CDT 5:45 PM CDT
Civil Twilight 7:06 AM CDT 7:05 PM CDT
Nautical Twilight 5:32 AM CDT 8:37 PM CDT
Astronomical Twilight 3:39 AM CDT 10:28 PM CDT
Moon No Moon Rise No Moon Set
Length of Visible Light 11h 59m
Length of Day
9h 18m
Last Quarter, 46% of the Moon is Illuminated
Oct 8
Last Quarter
Oct 15
New
Oct 21
First Quarter
Oct 29
Full
Nov 6
Last Quarter

Hourly Weather History & Observations

Time (CDT) Temp. Windchill Dew Point Humidity Pressure Visibility Wind Dir Wind Speed Gust Speed Precip Events Conditions
12:00 AM 14.0 °F 2.9 °F 8.6 °F 79% 30.09 in 15.0 mi NNW 8.1 mph - N/A   Mostly Cloudy
1:00 AM 13 °F - 7 °F 65% 30.07 in 15 mi North 8.1 mph - -   Partly Cloudy
1:00 AM 14.0 °F 2.9 °F 6.8 °F 73% 30.07 in 15.0 mi North 8.1 mph - N/A   Mostly Cloudy
2:00 AM 14.0 °F 6.5 °F 8.6 °F 79% 30.06 in 15.0 mi North 4.6 mph - N/A   Mostly Cloudy
3:00 AM 15.8 °F - 8.6 °F 73% 30.04 in 15.0 mi Calm Calm - N/A   Mostly Cloudy
4:00 AM 15.8 °F - 10.4 °F 79% 30.02 in 15.0 mi Calm Calm - N/A   Mostly Cloudy
5:00 AM 19.4 °F 10.4 °F 10.4 °F 68% 30.00 in 15.0 mi WNW 6.9 mph - N/A   Mostly Cloudy
6:00 AM 17.6 °F - 12.2 °F 79% 29.98 in 15.0 mi North 2.3 mph - N/A   Mostly Cloudy
6:45 AM - - - N/A% - 8.0 mi NW 6.9 mph - N/A   Unknown
7:00 AM 18 °F - 14 °F 76% 29.96 in 6 mi NNW 5.8 mph - - Snow Light Snow
7:00 AM 17.6 °F 9.3 °F 14.0 °F 86% 29.96 in 6.0 mi NNW 5.8 mph - N/A Snow Light Snow
7:18 AM - - - N/A% - 1.5 mi NW 4.6 mph - N/A   Unknown
7:25 AM - - - N/A% - 6.0 mi NW 4.6 mph - N/A   Unknown
8:00 AM 17.6 °F 12.3 °F 14.0 °F 86% 29.93 in 15.0 mi NNW 3.5 mph - N/A Snow Light Snow
9:00 AM 21.2 °F 8.3 °F 14.0 °F 74% 29.91 in 15.0 mi West 13.8 mph - N/A Snow Light Snow
9:21 AM - - - N/A% - 1.2 mi West 15.0 mph - N/A   Unknown
9:34 AM - - - N/A% - 2.0 mi West 15.0 mph - N/A   Unknown
10:00 AM 21.2 °F 7.8 °F 17.6 °F 86% 29.88 in 2.0 mi West 15.0 mph - N/A Snow Light Snow
10:29 AM - - - N/A% - 2.0 mi WSW 16.1 mph - N/A   Unknown
11:00 AM 21.2 °F 6.4 °F 15.8 °F 80% 29.87 in 2.0 mi West 18.4 mph - N/A Snow Light Snow
11:04 AM - - - N/A% - 5.0 mi West 15.0 mph - N/A   Unknown
12:00 PM 21.2 °F 7.8 °F 15.8 °F 80% 29.85 in 4.0 mi West 15.0 mph - N/A Snow Light Snow
1:00 PM 21 °F - 15 °F 67% 29.83 in 10 mi West 15.0 mph - - Snow Light Snow
1:00 PM 21.2 °F 7.8 °F 14.0 °F 74% 29.83 in 10.0 mi West 15.0 mph - N/A Snow Light Snow
2:00 PM 21.2 °F 6.8 °F 15.8 °F 80% 29.82 in 4.0 mi West 17.3 mph - N/A Snow Light Snow
3:00 PM 21.2 °F 6.4 °F 17.6 °F 86% 29.81 in 4.0 mi West 18.4 mph - N/A Snow Light Snow
3:09 PM - - - N/A% - 3.0 mi West 18.4 mph - N/A   Unknown
4:00 PM 21.2 °F 8.3 °F 14.0 °F 74% 29.80 in 8.0 mi West 13.8 mph - N/A Snow Light Snow
5:00 PM 21.2 °F 9.5 °F 15.8 °F 80% 29.80 in 5.0 mi West 11.5 mph - N/A Snow Light Snow
6:00 PM 21.2 °F 13.6 °F 17.6 °F 86% 29.79 in 3.0 mi WSW 5.8 mph - N/A Snow Light Snow
6:12 PM - - - N/A% - 0.8 mi WSW 9.2 mph - N/A   Unknown
6:33 PM - - - N/A% - 0.5 mi West 5.8 mph - N/A   Unknown
7:00 PM 21 °F - 17 °F 78% 29.77 in 1 mi West 9.2 mph - - Snow Light Snow
7:00 PM 21.2 °F 10.9 °F 17.6 °F 86% 29.77 in 0.8 mi West 9.2 mph - N/A Snow Light Snow
7:06 PM - - - N/A% - 1.5 mi SW 5.8 mph - N/A   Unknown
7:38 PM - - - N/A% - 2.5 mi WSW 11.5 mph - N/A   Unknown
8:00 PM 21.2 °F 10.9 °F 17.6 °F 86% 29.76 in 2.5 mi WSW 9.2 mph - N/A Snow Light Snow
8:30 PM - - - N/A% - 8.0 mi WSW 4.6 mph - N/A   Unknown
9:00 PM 19.4 °F - 15.8 °F 86% 29.75 in 6.0 mi SW 2.3 mph - N/A Snow Light Snow
10:00 PM 15.8 °F 2.7 °F 12.2 °F 86% 29.73 in 6.0 mi ENE 11.5 mph - N/A Snow Light Snow
11:00 PM 17.6 °F 2.2 °F 12.2 °F 79% 29.72 in 6.0 mi ENE 17.3 mph - N/A Snow Light Snow